Regional Weather Roundup
Issued by NWS

Home | Current Version | Previous Version | Graphics & Text | Print | Product List | Glossary On
Versions: 1 2 3 4 5 6 7 8 9 10 11 12 13 14 15 16 17 18 19 20 21 22 23 24 25 26 27 28 29 30 31 32 33 34 35 36 37 38 39 40 41 42 43 44 45 46 47 48 49 50
000
ASUS43 KLSX 250607
RWRMO

WEATHER SUMMARY FOR MISSOURI
NATIONAL WEATHER SERVICE SPRINGFIELD MO
1200 AM CST SUN JAN 25 2015

NOTE: "FAIR" INDICATES FEW OR NO CLOUDS BELOW 12,000 FEET WITH NO
       SIGNIFICANT WEATHER AND/OR OBSTRUCTIONS TO VISIBILITY.
       CURRENT SKY AND/OR WEATHER CONDITIONS ARE NOT AVAILABLE FOR
       CHILLICOTHE AND FARMINGTON.

MOZ001>031-035>038-043-044-053-054-250700-
...NORTHERN AND WESTERN MISSOURI...

CITY           SKY/WX    TMP DP  RH WIND       PRES   REMARKS
KANSAS CTY INT DRIZZLE   44  42  93 SW9       29.65F
6HR MIN TEMP:  44; 6HR MAX TEMP:  51; 6HR PCP:  0.06;

KANSAS C DTWN  LGT RAIN  47  43  86 SW7       29.66F
6HR MIN TEMP:  46; 6HR MAX TEMP:  56; 6HR PCP:  0.01;

LEE`S SUMMIT   CLOUDY    45  43  93 SW8       29.67F
6HR MIN TEMP:  45; 6HR MAX TEMP:  55; 6HR PCP:  0.03;

ST JOSEPH      CLOUDY    45  41  86 W13       29.64F
6HR MIN TEMP:  42; 6HR MAX TEMP:  50; 6HR PCP:  0.03;

CHILLICOTHE      N/A     47  39  74 VRB6      29.64F
6HR MIN TEMP:  45; 6HR MAX TEMP:  53;

KIRKSVILLE     CLOUDY    46  30  53 SW5       29.61F
6HR MIN TEMP:  45; 6HR MAX TEMP:  50;


$$
MOZ066>068-077>081-088>096-101>105-250700-
...SOUTHWEST MISSOURI...

CITY           SKY/WX    TMP DP  RH WIND       PRES   REMARKS
SPRINGFIELD    CLOUDY    50  31  48 SW14      29.75F
6HR MIN TEMP:  44; 6HR MAX TEMP:  51;

JOPLIN         CLOUDY    51  32  48 SW14      29.77F
6HR MIN TEMP:  49; 6HR MAX TEMP:  53;


$$
MOZ032>034-039>042-045>050-055>058-069>072-250700-
...CENTRAL MISSOURI...

CITY           SKY/WX    TMP DP  RH WIND       PRES   REMARKS
COLUMBIA       CLOUDY    50  33  52 W13       29.66F
6HR MIN TEMP:  45; 6HR MAX TEMP:  50;

JEFFERSON CITY CLOUDY    52  32  46 SW14      29.68F
6HR MIN TEMP:  50; 6HR MAX TEMP:  54;

ROLLA          CLOUDY    49  31  49 SW15      29.70S
6HR MIN TEMP:  43; 6HR MAX TEMP:  49;

SEDALIA        LGT RAIN  49  43  80 W10       29.69F
6HR MIN TEMP:  49; 6HR MAX TEMP:  52; 6HR PCP: TRACE;

WHITEMAN AFB   LGT RAIN  46  44  91 SW8       29.68F
WARRENSBURG    DRIZZLE   45  43  93 SW9       29.68F
OSAGE BEACH    CLOUDY    52  30  43 W12G20    29.71F

$$
MOZ051-052-059>065-250700-
...EAST CENTRAL MISSOURI...

CITY           SKY/WX    TMP DP  RH WIND       PRES   REMARKS
ST LOUIS INTL  CLOUDY    51  31  46 SW12      29.68F
6HR MIN TEMP:  48; 6HR MAX TEMP:  52;

SPIRIT OF STL  CLOUDY    50  32  50 SW13      29.67F
6HR MIN TEMP:  45; 6HR MAX TEMP:  52;

ST CHARLES     CLOUDY    44  33  65 CALM      29.67F
6HR MIN TEMP:  37; 6HR MAX TEMP:  46;


$$
MOZ072>076-082>087-097>100-106>115-250700-
...SOUTH CENTRAL AND SOUTHEAST MISSOURI...

CITY           SKY/WX    TMP DP  RH WIND       PRES   REMARKS
CAPE GIRARDEAU CLOUDY    41  34  76 SE5       29.79F
6HR MIN TEMP:  36; 6HR MAX TEMP:  46;

FARMINGTON     CLOUDY    48  28  46 MISG      29.76F
6HR MIN TEMP:  46; 6HR MAX TEMP:  50;

POPLAR BLUFF   PTCLDY    39  32  76 S7        29.80F
6HR MIN TEMP:  39; 6HR MAX TEMP:  47;

WEST PLAINS    CLOUDY    47  30  51 SW9       29.79F
6HR MIN TEMP:  45; 6HR MAX TEMP:  48;


$$


USA.gov is the U.S. government's official web portal to all federal, state and local government web resources and services.